Time,TemperatureF,DewpointF,PressureIn,WindDirection,WindDirectionDegrees,WindSpeedMPH,WindSpeedGustMPH,Humidity,HourlyPrecipIn,Conditions,Clouds,dailyrainin,SoftwareType,DateUTC
2013-03-14 00:30:00,38.0,-99.9,29.65,NW,309,8.0,9.0,-999,-99.99,,,-99.99,,2013-03-14 04:30:00,
2013-03-14 01:00:00,37.0,-99.9,29.64,NW,320,9.0,11.0,-999,-99.99,,,-99.99,,2013-03-14 05:00:00,
2013-03-14 01:02:00,38.0,-99.9,29.65,NW,309,8.0,9.0,-999,-99.99,,,-99.99,,2013-03-14 05:02:00,
2013-03-14 01:13:00,38.0,-99.9,29.65,NW,309,8.0,9.0,-999,-99.99,,,-99.99,,2013-03-14 05:13:00,
2013-03-14 01:22:00,38.0,-99.9,29.65,NW,309,8.0,9.0,-999,-99.99,,,-99.99,,2013-03-14 05:22:00,
2013-03-14 01:43:00,37.0,-99.9,29.64,NW,320,9.0,11.0,-999,-99.99,,,-99.99,,2013-03-14 05:43:00,
2013-03-14 01:53:00,37.0,-99.9,29.64,NW,320,9.0,11.0,-999,-99.99,,,-99.99,,2013-03-14 05:53:00,
2013-03-14 02:00:00,36.0,-99.9,29.64,NW,304,11.0,13.0,-999,-99.99,,,-99.99,,2013-03-14 06:00:00,
2013-03-14 03:00:00,36.0,-99.9,29.65,WNW,301,11.0,13.0,-999,-99.99,,,-99.99,,2013-03-14 07:00:00,
2013-03-14 03:43:00,36.0,-99.9,29.65,WNW,301,11.0,13.0,-999,-99.99,,,-99.99,,2013-03-14 07:43:00,
2013-03-14 03:52:00,36.0,-99.9,29.65,WNW,301,11.0,13.0,-999,-99.99,,,-99.99,,2013-03-14 07:52:00,
2013-03-14 04:30:00,35.0,-99.9,29.65,WNW,290,9.0,11.0,-999,-99.99,,,-99.99,,2013-03-14 08:30:00,
2013-03-14 05:00:00,35.0,-99.9,29.66,WNW,292,9.0,11.0,-999,-99.99,,,-99.99,,2013-03-14 09:00:00,
2013-03-14 05:02:00,35.0,-99.9,29.65,WNW,290,9.0,11.0,-999,-99.99,,,-99.99,,2013-03-14 09:02:00,
2013-03-14 05:12:00,35.0,-99.9,29.65,WNW,290,9.0,11.0,-999,-99.99,,,-99.99,,2013-03-14 09:12:00,
2013-03-14 05:22:00,35.0,-99.9,29.65,WNW,290,9.0,11.0,-999,-99.99,,,-99.99,,2013-03-14 09:22:00,
2013-03-14 06:00:00,34.0,-99.9,29.66,West,276,6.0,7.0,-999,-99.99,,,-99.99,,2013-03-14 10:00:00,
2013-03-14 07:00:00,34.0,-99.9,29.67,West,268,6.0,7.0,-999,-99.99,,,-99.99,,2013-03-14 11:00:00,
2013-03-14 07:42:00,34.0,-99.9,29.67,West,268,6.0,7.0,-999,-99.99,,,-99.99,,2013-03-14 11:42:00,
2013-03-14 07:53:00,34.0,-99.9,29.67,West,268,6.0,7.0,-999,-99.99,,,-99.99,,2013-03-14 11:53:00,
2013-03-14 08:00:00,35.0,-99.9,29.67,WSW,258,8.0,9.0,-999,-99.99,,,-99.99,,2013-03-14 12:00:00,
2013-03-14 08:43:00,35.0,-99.9,29.67,WSW,258,8.0,9.0,-999,-99.99,,,-99.99,,2013-03-14 12:43:00,
2013-03-14 08:52:00,35.0,-99.9,29.67,WSW,258,8.0,9.0,-999,-99.99,,,-99.99,,2013-03-14 12:52:00,
2013-03-14 09:00:00,35.0,-99.9,29.66,West,261,8.0,9.0,-999,-99.99,,,-99.99,,2013-03-14 13:00:00,
2013-03-14 09:43:00,35.0,-99.9,29.66,West,261,8.0,9.0,-999,-99.99,,,-99.99,,2013-03-14 13:43:00,
2013-03-14 09:53:00,35.0,-99.9,29.66,West,261,8.0,9.0,-999,-99.99,,,-99.99,,2013-03-14 13:53:00,
2013-03-14 10:00:00,36.0,-99.9,29.66,West,259,6.0,7.0,-999,-99.99,,,-99.99,,2013-03-14 14:00:00,
2013-03-14 10:43:00,36.0,-99.9,29.66,West,259,6.0,7.0,-999,-99.99,,,-99.99,,2013-03-14 14:43:00,
2013-03-14 10:53:00,36.0,-99.9,29.66,West,259,6.0,7.0,-999,-99.99,,,-99.99,,2013-03-14 14:53:00,
2013-03-14 11:00:00,38.0,-99.9,29.64,SSW,206,4.0,5.0,-999,-99.99,,,-99.99,,2013-03-14 15:00:00,
2013-03-14 11:43:00,38.0,-99.9,29.64,SSW,206,4.0,5.0,-999,-99.99,,,-99.99,,2013-03-14 15:43:00,
2013-03-14 11:52:00,38.0,-99.9,29.64,SSW,206,4.0,5.0,-999,-99.99,,,-99.99,,2013-03-14 15:52:00,
2013-03-14 12:00:00,38.0,-99.9,29.62,South,189,7.0,9.0,-999,-99.99,,,-99.99,,2013-03-14 16:00:00,
2013-03-14 12:42:00,38.0,-99.9,29.62,South,189,7.0,9.0,-999,-99.99,,,-99.99,,2013-03-14 16:42:00,
2013-03-14 12:52:00,38.0,-99.9,29.62,South,189,7.0,9.0,-999,-99.99,,,-99.99,,2013-03-14 16:52:00,
2013-03-14 13:00:00,37.0,-99.9,29.59,SW,218,14.0,16.0,-999,-99.99,,,-99.99,,2013-03-14 17:00:00,
2013-03-14 13:42:00,37.0,-99.9,29.59,SW,218,14.0,16.0,-999,-99.99,,,-99.99,,2013-03-14 17:42:00,
2013-03-14 13:53:00,37.0,-99.9,29.59,SW,218,14.0,16.0,-999,-99.99,,,-99.99,,2013-03-14 17:53:00,
2013-03-14 14:00:00,37.0,-99.9,29.58,NNW,344,7.0,10.0,-999,-99.99,,,-99.99,,2013-03-14 18:00:00,
2013-03-14 14:43:00,37.0,-99.9,29.58,NNW,344,7.0,10.0,-999,-99.99,,,-99.99,,2013-03-14 18:43:00,
2013-03-14 14:53:00,37.0,-99.9,29.58,NNW,344,7.0,10.0,-999,-99.99,,,-99.99,,2013-03-14 18:53:00,
2013-03-14 15:00:00,37.0,-99.9,29.57,East,95,6.0,10.0,-999,-99.99,,,-99.99,,2013-03-14 19:00:00,
2013-03-14 15:43:00,37.0,-99.9,29.57,East,95,6.0,10.0,-999,-99.99,,,-99.99,,2013-03-14 19:43:00,
2013-03-14 15:53:00,37.0,-99.9,29.57,East,95,6.0,10.0,-999,-99.99,,,-99.99,,2013-03-14 19:53:00,
2013-03-14 16:00:00,38.0,-99.9,29.56,SW,234,16.0,20.0,-999,-99.99,,,-99.99,,2013-03-14 20:00:00,
2013-03-14 16:43:00,38.0,-99.9,29.56,SW,234,16.0,20.0,-999,-99.99,,,-99.99,,2013-03-14 20:43:00,
2013-03-14 16:53:00,38.0,-99.9,29.56,SW,234,16.0,20.0,-999,-99.99,,,-99.99,,2013-03-14 20:53:00,
2013-03-14 17:00:00,37.0,-99.9,29.57,WSW,238,16.0,19.0,-999,-99.99,,,-99.99,,2013-03-14 21:00:00,
2013-03-14 17:44:00,37.0,-99.9,29.57,WSW,238,16.0,19.0,-999,-99.99,,,-99.99,,2013-03-14 21:44:00,
2013-03-14 17:53:00,37.0,-99.9,29.57,WSW,238,16.0,19.0,-999,-99.99,,,-99.99,,2013-03-14 21:53:00,
2013-03-14 18:10:00,36.0,-99.9,29.59,NW,306,15.0,18.0,-999,-99.99,,,-99.99,,2013-03-14 22:10:00,
2013-03-14 19:00:00,34.0,-99.9,29.61,WNW,302,13.0,15.0,-999,-99.99,,,-99.99,,2013-03-14 23:00:00,
2013-03-14 19:03:00,36.0,-99.9,29.59,NW,306,15.0,18.0,-999,-99.99,,,-99.99,,2013-03-14 23:03:00,
2013-03-14 19:43:00,34.0,-99.9,29.61,WNW,302,13.0,15.0,-999,-99.99,,,-99.99,,2013-03-14 23:43:00,
2013-03-14 19:54:00,34.0,-99.9,29.61,WNW,302,13.0,15.0,-999,-99.99,,,-99.99,,2013-03-14 23:54:00,
2013-03-14 20:30:00,30.0,-99.9,29.63,NNW,331,22.0,26.0,-999,-99.99,,,-99.99,,2013-03-15 00:30:00,
2013-03-14 20:43:00,31.0,-99.9,29.62,NNW,335,21.0,28.0,-999,-99.99,,,-99.99,,2013-03-15 00:43:00,
2013-03-14 20:53:00,31.0,-99.9,29.62,NNW,335,21.0,28.0,-999,-99.99,,,-99.99,,2013-03-15 00:53:00,
2013-03-14 21:02:00,30.0,-99.9,29.63,NNW,331,22.0,26.0,-999,-99.99,,,-99.99,,2013-03-15 01:02:00,
2013-03-14 21:12:00,30.0,-99.9,29.63,NNW,331,22.0,26.0,-999,-99.99,,,-99.99,,2013-03-15 01:12:00,
2013-03-14 21:23:00,30.0,-99.9,29.63,NNW,331,22.0,26.0,-999,-99.99,,,-99.99,,2013-03-15 01:23:00,
2013-03-14 21:30:00,31.0,-99.9,29.63,NNW,331,22.0,26.0,-999,-99.99,,,-99.99,,2013-03-15 01:30:00,
2013-03-14 21:43:00,31.0,-99.9,29.63,NNW,332,19.0,24.0,-999,-99.99,,,-99.99,,2013-03-15 01:43:00,
2013-03-14 21:52:00,31.0,-99.9,29.63,NNW,332,19.0,24.0,-999,-99.99,,,-99.99,,2013-03-15 01:52:00,
2013-03-14 22:03:00,31.0,-99.9,29.63,NNW,331,22.0,26.0,-999,-99.99,,,-99.99,,2013-03-15 02:03:00,
2013-03-14 22:12:00,31.0,-99.9,29.63,NNW,331,22.0,26.0,-999,-99.99,,,-99.99,,2013-03-15 02:12:00,
2013-03-14 22:22:00,31.0,-99.9,29.63,NNW,331,22.0,26.0,-999,-99.99,,,-99.99,,2013-03-15 02:22:00,
2013-03-14 22:30:00,29.0,-99.9,29.64,NNW,337,23.0,28.0,-999,-99.99,,,-99.99,,2013-03-15 02:30:00,
2013-03-14 22:42:00,30.0,-99.9,29.64,NNW,336,24.0,30.0,-999,-99.99,,,-99.99,,2013-03-15 02:42:00,
2013-03-14 22:52:00,30.0,-99.9,29.64,NNW,336,24.0,30.0,-999,-99.99,,,-99.99,,2013-03-15 02:52:00,
2013-03-14 23:02:00,29.0,-99.9,29.64,NNW,337,23.0,28.0,-999,-99.99,,,-99.99,,2013-03-15 03:02:00,
2013-03-14 23:13:00,29.0,-99.9,29.64,NNW,337,23.0,28.0,-999,-99.99,,,-99.99,,2013-03-15 03:13:00,
2013-03-14 23:22:00,29.0,-99.9,29.64,NNW,337,23.0,28.0,-999,-99.99,,,-99.99,,2013-03-15 03:22:00,
2013-03-14 23:30:00,27.0,-99.9,29.65,NW,326,21.0,31.0,-999,-99.99,,,-99.99,,2013-03-15 03:30:00,
2013-03-14 23:43:00,29.0,-99.9,29.65,NNW,344,21.0,25.0,-999,-99.99,,,-99.99,,2013-03-15 03:43:00,
2013-03-14 23:53:00,29.0,-99.9,29.65,NNW,344,21.0,25.0,-999,-99.99,,,-99.99,,2013-03-15 03:53:00,